This demonstration page uses our WeatherBlox Daily Observations layout. Learn more.

Left ArrowRight Arrow

Hourly Observations for June 22, 2019

Temp ( °F °C ) Dew Point ( °F °C ) Humidity (%) Winds ( mph kmh ) Pressure ( in mb ) Visibility ( mi km ) Precip ( " mm )
12:51 am 00:51 Clear 78 25.6 29 -1.7 16 16 NW 14 22 29.67 1005 10 16 0.00 0.00
1:51 am 01:51 Clear 76 24.4 31 -0.6 19 19 NNW 8 13 29.67 1005 10 16 0.00 0.00
2:51 am 02:51 Clear 75 23.9 31 -0.6 20 20 Calm 29.69 1005 10 16 0.00 0.00
3:51 am 03:51 Clear 71 21.7 28 -2.2 20 20 E 7 11 29.70 1006 10 16 0.00 0.00
4:51 am 04:51 Clear 70 21.1 29 -1.7 22 22 NNE 7 11 29.72 1006 10 16 0.00 0.00
5:51 am 05:51 Sunny 72 22.2 30 -1.1 21 21 NE 3 6 29.73 1007 10 16 0.00 0.00
6:51 am 06:51 Sunny 77 25 32 0 19 19 ESE 8 13 29.73 1007 10 16 0.00 0.00
7:51 am 07:51 Sunny 80 26.7 32 0 17 17 SE 8 13 29.75 1008 10 16 0.00 0.00
8:51 am 08:51 Sunny 82 27.8 32 0 16 16 S 6 9 29.76 1008 10 16 0.00 0.00
9:51 am 09:51 Sunny 85 29.4 28 -2.2 13 13 VRB 3 6 29.76 1008 10 16 0.00 0.00
10:51 am 10:51 Sunny 87 30.6 26 -3.3 11 11 WNW 6 9 29.75 1007 10 16 0.00 0.00
11:51 am 11:51 Sunny 89 31.7 25 -3.9 10 10 ESE 6 9 29.73 1007 10 16 0.00 0.00
12:51 pm 12:51 Sunny 92 33.3 25 -3.9 9 9 VRB 6 9 29.70 1006 10 16 0.00 0.00
1:51 pm 13:51 Sunny 93 33.9 24 -4.4 8 8 SSW 9 15 29.68 1005 10 16 0.00 0.00
2:51 pm 14:51 Sunny 95 35 24 -4.4 8 8 SW 8 13 29.66 1005 10 16 0.00 0.00
3:51 pm 15:51 Mostly Sunny 94 34.4 23 -5 8 8 VRB 6 9 29.64 1004 10 16 0.00 0.00
4:51 pm 16:51 Mostly Sunny 96 35.6 19 -7.2 6 6 WNW 15 24 29.63 1003 10 16 0.00 0.00
5:51 pm 17:51 Mostly Sunny 94 34.4 23 -5 8 8 W 18 30 29.63 1004 10 16 0.00 0.00
6:51 pm 18:51 Sunny 91 32.8 26 -3.3 9 9 WNW 24 39 29.64 1004 10 16 0.00 0.00
7:51 pm 19:51 Clear 87 30.6 28 -2.2 12 12 WNW 18 30 29.67 1005 10 16 0.00 0.00
8:51 pm 20:51 Clear 84 28.9 30 -1.1 14 14 NW 16 26 29.71 1006 10 16 0.00 0.00
9:51 pm 21:51 Clear 82 27.8 30 -1.1 15 15 NW 14 22 29.73 1007 10 16 0.00 0.00
10:51 pm 22:51 Clear 79 26.1 29 -1.7 16 16 WNW 12 19 29.75 1007 10 16 0.00 0.00
11:51 pm 23:51 Clear 80 26.7 30 -1.1 16 16 WNW 18 30 29.74 1007 10 16 0.00 0.00

Powered by AerisWeather